This demonstration page uses our WeatherBlox Daily Observations layout. Learn more.

Left ArrowRight Arrow

39.92423, -83.80882

Hourly Observations for February 11, 2016

Temp ( °F °C ) Dew Point ( °F °C ) Humidity (%) Winds ( mph kmh ) Pressure ( in mb ) Visibility ( mi km ) Precip ( " mm )
12:56 am 00:56 Clear 6 -14.4 N/A 76 76 WSW 6 9 30.16 1022 10 16 N/A
1:56 am 01:56 Clear 5 -15 N/A 80 80 WSW 6 9 30.16 1021 10 16 N/A
2:56 am 02:56 Clear 5 -15 N/A 80 80 WSW 6 9 30.17 1022 10 16 N/A
3:56 am 03:56 Clear 4 -15.5 N/A 83 83 WSW 7 11 30.19 1022 10 16 N/A
4:56 am 04:56 Clear 5 -15 1 -17.2 83 83 WSW 7 11 30.19 1023 10 16 N/A
5:56 am 05:56 Clear 4 -15.5 1 -17.2 87 87 WSW 7 11 30.22 1023 10 16 N/A
6:56 am 06:56 Mostly Cloudy 5 -15 1 -17.2 83 83 WSW 7 11 30.24 1024 10 16 N/A
7:56 am 07:56 Cloudy 8 -13.3 4 -15.5 84 84 WSW 7 11 30.27 1025 10 16 N/A
8:56 am 08:56 Mostly Cloudy 10 -12.2 6 -14.4 84 84 WSW 7 11 30.29 1026 10 16 N/A
9:56 am 09:56 Mostly Cloudy 13 -10.5 7 -13.8 77 77 W 8 13 30.31 1027 10 16 N/A
10:56 am 10:56 Cloudy 17 -8.3 9 -12.7 71 71 WNW 9 15 30.32 1027 10 16 N/A
11:56 am 11:56 Mostly Cloudy 20 -6.6 10 -12.2 65 65 WNW 9 15 30.32 1027 10 16 N/A
12:56 pm 12:56 Mostly Cloudy 22 -5.5 10 -12.2 60 60 W 9 15 30.31 1026 10 16 N/A
1:56 pm 13:56 Cloudy 21 -6.1 8 -13.3 57 57 WNW 8 13 30.30 1026 10 16 N/A
2:56 pm 14:56 Cloudy 21 -6.1 8 -13.3 57 57 NW 10 17 30.31 1026 10 16 N/A
3:56 pm 15:56 Cloudy 21 -6.1 8 -13.3 57 57 WNW 6 9 30.32 1027 10 16 N/A
4:56 pm 16:56 Cloudy 20 -6.6 8 -13.3 59 59 NW 9 15 30.33 1027 10 16 N/A
5:56 pm 17:56 Mostly Cloudy 18 -7.7 6 -14.4 59 59 NW 5 7 30.35 1028 10 16 N/A
6:56 pm 18:56 Mostly Cloudy 17 -8.3 6 -14.4 62 62 N N/A 30.36 1028 10 16 N/A
7:56 pm 19:56 Cloudy 14 -10 5 -15 67 67 N N/A 30.36 1028 10 16 N/A
8:56 pm 20:56 Clear 12 -11.1 5 -15 73 73 N N/A 30.36 1028 10 16 N/A
9:56 pm 21:56 Clear 11 -11.6 6 -14.4 80 80 SSE 3 6 30.35 1028 10 16 N/A
10:56 pm 22:56 Clear 10 -12.2 5 -15 80 80 SE 3 6 30.34 1028 10 16 N/A
11:56 pm 23:56 Clear 8 -13.3 4 -15.5 84 84 SSE 6 9 30.33 1027 10 16 N/A

Powered by AerisWeather